Location: La Oliva
(42.2466°N, 2.9955°E)
Time: 11:05:30
(UTC+00:00)

Cosmos 1092 Rocket - Pass Details

Date: 22 April 2021
Orbit: 954 x 995 km, 82.9° (Epoch: 10 May)

Event Time Altitude Azimuth Distance (km) Brightness Sun altitude
Rises 18:53:41 0° 355° (N) 3,687 7.4 -3.7°
Reaches altitude 10° 18:56:16 10° 360° (N) 2,729 6.7 -4.1°
Maximum altitude 19:02:25 59° 79° (E) 1,109 4.1 -5.2°
Drops below altitude 10° 19:08:29 10° 159° (SSE) 2,685 5.9 -6.2°
Sets 19:11:00 0° 163° (SSE) 3,623 6.6 -6.6°
